GFSNE_925_rhum_003.txt.gz
RH
34 38 42 44 46 57 62 60 56 54 49 40 48 50 58 59 57 54 52 52 53 52 47 48 52 67 74 70 54 55 54 56 63 65 58 56 56 56
40 43 46 46 52 59 65 64 64 62 62 53 57 60 60 60 57 54 53 57 56 56 56 57 61 58 55 56 54 56 60 69 77 74 75 72 69 69
45 48 48 50 58 62 66 68 68 67 65 64 63 64 61 58 54 58 64 64 66 62 57 56 58 60 68 72 69 70 68 66 71 76 78 80 77 76
52 54 58 57 62 64 67 67 67 68 71 71 69 65 58 60 65 74 72 62 58 61 59 60 59 59 61 70 78 75 79 83 71 67 73 69 70 68
60 59 58 61 62 62 67 69 67 68 71 75 69 63 67 77 84 67 58 52 53 57 60 62 63 66 66 69 70 71 70 73 70 68 78 74 74 74
63 52 54 62 64 70 71 68 67 63 68 70 76 90 73 67 62 56 57 60 63 66 69 67 65 63 64 64 65 67 69 69 68 68 69 73 73 68
65 56 60 64 73 69 66 69 68 74 89 97 83 73 67 57 58 63 67 71 74 68 67 67 64 67 71 70 69 69 72 73 74 75 79 78 77 71
67 65 65 67 72 76 72 73 78 98 97 86 77 63 57 61 66 76 86 80 78 64 65 75 72 72 70 69 68 70 71 72 73 76 76 78 74 70
70 70 72 74 74 80 80 84 97 79 70 69 63 62 68 74 98 91 83 80 78 76 78 80 72 71 67 66 67 70 72 74 78 84 87 83 76 75
70 71 76 78 83 83 85 98 81 71 66 69 70 79 91 82 76 77 86 92 85 74 66 80 70 70 69 70 70 73 75 76 76 78 75 74 79 81
71 76 78 77 74 70 92 80 65 66 66 78 93 84 74 76 81 88 88 90 80 70 70 73 70 73 75 74 72 69 75 80 80 79 76 74 73 72
74 76 78 74 69 82 73 67 74 72 93 92 70 68 73 76 81 78 87 94 90 86 62 84 83 81 79 58 59 72 71 73 78 80 85 87 85 86
70 72 74 75 87 70 66 71 78 89 76 72 73 74 75 73 76 87 94 98 95 91 81 93 91 88 88 87 73 70 72 85 94 90 90 95 98 99
78 74 76 85 71 69 73 81 79 80 76 76 77 76 80 90 93 95 98 100 100 98 95 99 96 96 93 87 80 72 74 87 92 98 98 99 99 99
74 72 78 76 70 74 80 82 81 81 80 82 82 88 90 94 98 98 95 96 97 95 94 93 99 98 97 93 91 86 85 85 92 98 99 99 99 99
77 80 78 71 74 80 80 78 79 80 85 89 88 90 89 89 91 93 96 95 96 88 84 88 97 99 96 94 95 92 89 94 93 98 99 99 100 100
73 76 68 72 76 78 79 81 81 82 89 92 93 93 90 89 92 92 95 95 92 89 88 87 91 95 96 93 93 84 81 90 91 98 99 97 96 100
76 71 75 78 81 83 86 87 88 91 94 97 98 98 96 95 94 94 93 94 93 90 90 92 93 94 81 69 65 84 90 88 92 96 99 97 88 87
76 79 82 85 88 92 96 97 95 96 98 99 100 99 98 96 94 94 93 93 91 90 91 91 96 94 90 89 69 69 95 95 96 88 96 98 97 98
84 84 88 90 95 98 99 97 97 98 98 99 98 97 98 98 96 94 94 94 93 91 90 89 93 95 96 94 94 83 78 99 98 96 97 97 98 97
86 88 92 97 100 100 100 100 100 99 98 98 99 98 98 98 95 95 96 92 92 92 91 90 94 99 93 98 87 79 80 90 99 99 99 97 95 86
89 94 98 100 100 100 100 100 100 100 99 99 99 98 98 98 97 97 96 95 93 95 96 97 95 97 99 92 93 86 87 88 88 95 99 99 98 97
97 100 100 100 100 100 100 100 100 100 99 99 100 99 99 97 98 99 98 98 98 95 94 96 95 93 93 95 93 84 83 84 85 88 94 98 99 99

GFSNE_925_rhum_009.txt.gz
RH
38 38 40 39 39 40 41 42 44 50 45 34 31 34 35 38 41 45 47 47 49 54 55 57 58 60 58 56 56 60 64 60 69 67 64 68 68 60
37 39 41 40 39 39 41 42 42 44 50 42 40 39 40 44 46 47 49 54 55 54 54 55 55 54 55 57 59 63 71 70 72 72 75 76 77 72
39 41 45 45 43 38 39 40 42 44 48 46 46 48 49 49 48 52 64 58 57 51 48 48 51 55 60 64 65 67 68 67 69 72 80 74 76 71
40 42 46 39 38 37 38 40 42 44 49 52 52 53 53 50 58 70 63 53 51 44 47 52 55 58 60 62 64 69 66 71 72 78 76 75 73 73
42 43 45 44 40 40 43 47 51 52 53 54 56 54 58 69 75 59 52 48 46 49 52 54 57 59 62 62 62 61 62 62 67 69 71 75 72 71
46 46 46 47 46 49 59 61 58 60 60 61 66 73 84 72 57 51 48 52 58 61 63 60 60 59 59 56 61 64 66 66 66 67 69 72 78 81
44 44 43 45 55 63 66 66 66 66 73 82 84 92 67 57 52 52 58 67 72 72 63 64 59 62 65 63 62 62 63 64 68 73 78 78 85 81
45 44 47 53 52 56 60 61 63 70 85 96 90 67 64 52 57 69 80 93 80 65 64 68 68 70 66 64 60 61 64 68 71 76 82 82 86 87
49 53 54 51 54 58 60 61 72 77 82 65 62 57 58 63 76 91 86 78 78 74 73 77 70 67 63 62 61 63 70 73 76 82 88 90 89 90
49 51 52 52 56 62 69 87 86 78 61 54 57 62 72 93 98 86 76 79 80 77 71 77 68 68 65 66 68 70 71 69 66 69 74 81 94 98
48 48 50 55 58 62 68 87 78 62 57 56 65 74 71 64 65 68 81 85 85 74 72 74 70 76 76 74 68 59 59 65 73 73 76 76 81 98
51 51 52 56 62 63 78 71 70 65 64 80 80 66 60 60 61 63 71 96 92 88 69 79 89 87 85 64 61 72 72 71 71 75 73 74 87 100
61 60 62 61 64 68 67 69 67 68 82 79 66 62 63 64 68 78 86 95 96 92 84 90 94 92 93 87 77 74 73 72 74 77 84 84 85 95
64 71 72 66 67 65 67 65 70 75 74 66 67 69 73 81 85 87 89 94 97 98 94 99 96 97 94 90 84 72 73 78 83 88 90 93 94 97
72 69 67 66 63 61 59 66 68 66 67 72 79 82 83 83 86 89 89 89 91 91 92 93 99 98 98 94 91 88 80 82 87 92 88 100 99 100
71 72 68 60 52 55 58 61 64 67 75 87 87 87 86 86 87 89 94 92 95 89 86 87 90 95 97 96 95 92 84 89 88 90 94 99 96 95
70 73 60 51 57 59 62 66 70 76 87 90 94 94 92 90 91 91 93 96 95 88 86 85 86 88 93 100 96 88 86 86 80 84 94 96 90 87
75 64 54 61 64 67 72 78 84 88 93 96 97 97 96 95 94 95 93 94 94 90 91 88 91 94 84 78 74 83 83 81 84 91 96 98 88 82
61 59 64 70 72 76 82 88 94 93 95 98 98 98 98 97 93 94 94 94 91 88 87 88 94 95 93 89 69 73 93 95 96 93 87 94 97 89
63 64 70 73 76 83 89 94 96 96 96 98 98 98 98 98 96 94 94 95 94 92 93 87 86 94 96 95 94 85 82 86 95 95 93 92 95 92
66 67 73 78 83 89 95 98 100 99 98 98 98 98 98 98 96 95 95 91 90 93 93 87 87 92 96 98 95 78 75 76 83 98 99 98 96 94
69 74 80 83 90 96 99 100 100 100 98 99 98 98 98 98 97 96 96 96 95 94 95 98 91 97 99 93 92 90 82 81 82 85 97 99 99 98
75 80 86 93 98 100 100 100 100 100 100 99 100 98 98 97 97 98 98 98 98 97 97 95 93 88 83 81 83 83 86 87 88 91 94 99 99 99

GFSNE_925_rhum_012.txt.gz
RH
35 38 38 40 39 39 40 42 48 60 54 43 42 40 40 41 44 49 49 48 51 58 59 56 56 58 56 56 56 57 57 62 66 77 77 76 72 72
36 37 39 42 42 42 42 40 41 47 59 46 48 46 48 50 52 52 50 53 62 63 57 57 56 55 55 57 60 67 72 71 76 76 81 80 84 78
37 39 41 44 46 41 38 38 39 42 57 49 50 54 54 55 54 54 60 67 68 57 53 54 52 56 59 64 66 63 68 69 75 76 80 80 82 78
38 40 42 43 44 42 39 40 44 48 53 61 62 61 61 58 62 71 74 63 56 53 50 53 57 60 61 64 65 70 72 73 73 80 77 70 69 72
40 43 45 47 47 47 46 54 58 63 63 68 68 66 68 75 88 69 62 55 51 54 56 58 63 65 65 64 63 63 65 68 66 67 71 75 73 77
46 45 45 44 45 47 53 59 67 68 70 71 77 84 84 93 67 65 60 58 64 69 72 74 66 66 66 62 68 70 70 69 68 67 69 73 76 75
46 44 45 44 53 56 60 60 64 65 68 82 83 88 86 70 72 60 64 66 75 82 76 69 70 69 71 72 74 71 71 69 68 69 72 72 77 83
49 48 48 52 54 56 59 61 61 64 75 88 98 71 74 62 64 67 75 86 90 72 72 76 73 75 78 75 71 69 70 69 69 74 77 78 81 83
50 48 51 53 54 54 57 63 65 77 74 74 72 64 63 66 72 89 96 99 86 79 80 83 78 77 73 72 73 73 73 77 78 78 74 73 75 76
50 49 49 50 51 58 60 65 79 80 76 68 64 64 68 78 95 87 77 78 81 81 78 88 75 76 76 77 76 78 79 76 69 67 72 77 77 78
54 52 53 55 56 59 65 68 79 75 73 67 68 76 77 71 67 69 78 81 84 79 79 82 81 84 84 82 70 66 69 66 76 76 79 78 79 77
64 63 62 62 63 63 64 72 74 74 68 76 84 67 69 66 68 70 74 93 91 88 72 92 90 93 84 67 64 73 74 78 77 78 77 80 83 88
70 67 67 69 68 68 66 67 69 66 76 82 70 71 70 72 76 80 86 94 96 93 84 93 94 93 94 88 79 77 76 76 77 80 86 89 90 91
66 71 71 74 69 66 66 63 65 68 66 68 72 76 82 87 88 87 87 90 91 100 95 100 97 98 94 90 84 73 75 79 84 85 90 91 92 93
71 75 72 72 70 62 56 62 65 64 68 76 91 91 89 89 93 96 91 96 96 96 93 93 98 98 98 94 92 89 82 84 87 88 86 93 93 95
81 74 78 69 60 58 62 63 68 72 78 85 90 92 95 96 94 96 98 98 98 92 85 86 89 93 97 96 96 92 88 92 87 87 89 94 92 90
72 77 68 61 64 69 71 74 78 84 91 94 98 97 96 95 95 94 97 98 96 92 90 88 88 90 94 98 97 90 88 89 88 91 93 92 90 91
73 65 62 64 73 77 79 84 89 92 96 100 99 99 98 98 97 97 96 98 96 92 92 91 92 94 87 80 80 92 96 93 94 90 91 96 92 83
64 66 66 68 74 78 82 91 95 98 99 100 100 99 99 98 95 96 96 96 93 91 90 92 97 96 94 89 70 72 91 96 94 93 88 89 94 91
68 69 68 71 77 83 90 98 100 100 100 100 100 98 99 99 97 95 95 95 95 94 94 90 91 96 96 95 94 88 87 91 99 96 93 91 91 88
70 71 72 78 82 86 94 100 100 100 98 99 100 99 98 97 96 96 96 92 92 93 93 90 88 96 100 100 95 78 77 79 85 96 98 97 92 92
74 74 77 83 88 91 96 100 100 100 100 100 100 99 98 99 97 97 97 96 95 95 96 97 95 97 99 95 92 89 86 84 85 86 92 99 99 97
77 81 88 90 89 92 100 100 100 100 100 99 100 99 98 97 98 100 99 99 99 97 97 93 92 88 89 92 94 95 94 90 91 88 87 80 83 85

GFSNE_925_rhum_015.txt.gz
RH
32 35 38 40 41 41 41 42 50 68 56 47 46 42 45 49 53 56 56 53 58 60 65 66 63 61 60 59 59 59 66 79 74 73 69 72 73 71
34 37 37 40 41 43 43 41 40 48 65 44 49 49 57 59 58 59 53 63 68 74 66 59 61 61 60 60 63 67 68 72 79 80 79 77 79 78
36 38 40 42 43 43 41 40 39 44 62 58 59 64 64 62 60 58 68 74 68 62 61 60 59 60 62 64 64 64 67 69 77 79 76 79 76 77
36 38 40 43 44 46 46 45 47 52 60 68 72 72 69 66 71 77 80 74 66 60 57 59 62 65 66 70 69 68 66 73 85 76 75 68 67 79
40 43 45 46 46 46 48 49 52 58 65 70 77 72 75 80 86 88 75 70 63 61 60 65 69 75 73 71 70 69 70 73 73 69 74 73 76 76
47 46 45 46 46 48 52 57 61 64 69 70 76 84 86 89 77 75 72 65 66 66 71 78 78 72 71 71 74 76 78 78 75 73 76 80 83 80
38 43 47 48 54 58 59 60 62 65 67 74 89 90 89 70 74 68 71 70 74 80 80 75 72 75 75 76 76 79 82 77 74 74 79 81 86 86
44 48 49 49 50 59 59 58 61 64 68 84 89 85 80 71 69 71 77 84 88 76 77 83 79 80 80 80 80 77 76 79 80 80 80 80 79 83
52 51 50 50 54 51 53 61 62 70 77 78 84 81 77 72 71 88 98 97 88 83 82 84 80 81 78 77 76 79 81 82 82 79 79 77 75 77
55 56 55 56 57 62 60 64 69 70 74 77 76 73 71 85 94 83 79 82 83 79 78 85 78 78 78 80 80 81 81 81 77 73 73 77 79 78
62 60 64 64 64 65 64 65 70 75 69 73 72 79 81 74 74 76 81 86 86 78 79 83 80 88 84 84 69 64 74 73 74 78 80 82 80 80
69 68 67 70 69 68 69 72 72 69 66 71 79 70 63 67 77 77 79 93 94 89 68 85 91 92 87 67 66 71 74 79 82 80 80 80 82 84
70 69 72 77 73 72 69 69 68 65 75 67 65 70 74 79 84 84 89 97 98 94 84 92 94 94 94 90 82 78 78 79 78 81 84 86 90 92
74 73 74 77 74 72 69 64 65 71 65 70 77 82 88 92 89 93 92 93 92 99 96 100 96 98 94 90 85 75 75 81 86 90 90 92 93 94
75 79 79 79 74 67 64 67 70 68 74 84 88 90 94 94 94 98 88 94 94 91 93 92 100 100 99 94 91 89 85 84 87 91 85 91 93 96
77 81 80 70 67 66 69 71 74 79 86 91 95 96 98 98 96 97 100 99 99 92 81 89 93 96 97 97 98 92 87 93 87 92 93 90 91 94
74 73 64 64 67 74 79 80 82 86 93 97 100 100 99 98 98 97 100 99 97 92 91 89 87 93 97 100 96 91 90 90 90 92 96 96 90 89
69 65 67 68 73 79 85 87 88 91 96 100 100 100 100 100 100 98 97 99 96 92 93 92 94 96 89 85 91 96 95 95 93 95 95 97 92 85
67 70 72 72 76 83 88 92 94 94 98 100 100 100 100 100 95 98 97 96 93 91 91 93 97 96 94 89 69 72 95 97 96 95 94 95 95 91
72 74 74 76 81 86 88 91 94 100 100 100 100 100 99 99 98 96 96 96 95 93 94 89 92 96 96 94 93 89 89 97 98 96 94 90 91 91
75 77 77 79 84 88 87 89 98 100 100 100 100 100 98 98 97 97 96 93 93 95 93 89 88 94 100 100 94 79 77 81 89 98 98 97 92 88
79 82 85 88 88 89 91 96 100 100 100 100 100 99 98 98 98 98 97 96 95 96 96 96 96 96 99 97 91 88 84 84 83 84 86 98 98 96
88 91 92 92 92 95 96 97 100 100 100 100 98 98 99 99 99 100 99 99 99 97 96 94 92 90 88 89 89 93 88 84 85 86 86 71 78 82

GFSNE_925_rhum_018.txt.gz
RH
30 32 34 38 39 40 42 43 49 64 66 45 42 42 47 53 60 62 60 53 66 70 73 72 68 66 65 64 64 67 65 67 70 74 69 71 71 72
32 35 37 37 39 42 43 43 43 49 68 48 46 50 54 61 56 60 60 75 71 72 72 69 68 67 65 66 67 64 71 72 74 80 73 76 74 74
34 37 38 39 41 42 42 42 42 44 67 58 58 59 66 64 61 63 72 67 70 74 71 69 68 68 68 68 68 68 69 76 76 74 80 81 79 78
35 37 38 40 43 44 46 46 47 47 58 69 70 68 71 70 69 79 70 70 75 73 71 69 68 70 72 75 75 70 70 71 71 74 73 73 68 75
36 39 42 45 47 47 47 48 49 54 60 69 78 74 75 72 80 83 80 74 69 69 67 69 72 78 79 75 74 74 74 75 74 73 72 72 76 79
43 45 46 46 47 47 52 56 59 63 65 69 74 76 79 84 88 77 75 70 71 72 75 80 80 78 74 76 77 78 80 80 81 78 75 81 84 81
34 37 43 48 54 60 60 61 63 62 63 66 77 89 89 81 81 77 76 75 78 81 77 78 74 81 76 82 79 78 84 85 79 76 78 81 82 88
34 43 47 49 51 57 61 58 60 63 67 78 84 95 88 82 80 80 81 90 89 74 81 83 80 82 78 79 82 84 80 79 80 79 83 84 86 84
47 52 52 52 54 54 55 62 63 66 71 73 82 85 86 80 78 86 98 97 89 86 84 84 80 82 77 78 76 80 82 84 84 83 77 82 84 88
55 60 60 61 61 66 65 66 66 69 72 77 80 77 75 82 95 88 81 85 87 83 80 84 76 79 78 76 79 83 84 84 83 79 76 74 75 76
58 67 72 73 71 72 68 70 81 77 70 71 75 79 82 80 73 80 85 91 88 82 82 85 81 80 78 80 70 62 78 77 74 77 80 80 80 80
70 70 69 76 74 72 74 80 74 71 66 75 78 71 61 60 79 81 84 95 96 88 70 82 88 92 83 69 68 66 73 75 83 84 83 81 81 81
73 72 73 78 78 76 73 72 71 67 75 74 65 63 68 78 82 81 86 98 100 96 88 95 93 94 95 91 82 80 79 79 78 81 84 86 88 89
76 76 75 90 79 75 73 72 70 74 70 67 79 85 88 87 83 86 86 92 95 99 91 100 95 99 95 91 86 76 76 80 85 91 91 92 94 93
79 80 86 81 77 73 71 73 77 70 75 87 94 94 95 92 91 92 91 92 96 91 93 92 97 98 99 94 91 90 88 83 86 92 88 86 86 96
80 89 81 71 69 69 70 68 71 77 89 92 94 98 100 99 99 98 100 100 100 95 87 89 94 97 97 98 98 93 88 93 87 91 94 96 98 99
85 70 62 67 70 72 74 76 79 82 91 92 100 100 99 99 100 100 100 100 98 93 92 88 88 94 99 100 96 92 91 91 90 94 97 96 94 95
74 66 70 73 76 80 85 86 81 88 90 99 100 100 100 100 100 100 98 99 97 93 94 93 94 96 89 83 90 97 95 96 93 94 98 97 92 86
69 72 75 77 78 81 85 88 89 88 95 100 100 100 100 100 97 100 98 97 94 92 93 93 97 96 94 89 69 72 95 98 96 94 94 94 95 89
73 77 79 80 83 89 88 89 93 95 98 100 100 99 98 99 100 97 97 96 96 93 93 90 92 95 96 94 94 87 87 96 98 96 93 91 91 91
77 81 85 88 90 92 93 96 97 98 100 100 99 100 98 99 98 98 98 95 94 95 93 90 88 93 98 100 94 79 75 78 86 98 97 97 91 87
84 90 92 94 96 98 98 98 98 98 98 100 100 98 97 98 97 97 98 98 97 98 97 96 97 94 97 97 92 89 86 83 83 84 90 98 98 96
91 95 97 96 97 99 99 100 100 98 99 100 98 96 98 98 99 100 100 100 100 98 97 92 89 88 88 91 93 90 91 87 85 89 85 80 91 88